Find Starlink 11090

NORAD ID: 59422 Int'l Des: 2024-065 Owner: SPXS Country: US Constellation: starlink operational
LEOCIRCULAR

Live Position

Loading 3D Globe...

About Starlink 11090

Description loading...

Upcoming Passes

Passes for default location (London). Set your location on the main map for personalized predictions.

Altitude History

Loading altitude history...

Two-Line Element Set

1 59422U 24065B 26126.37469085 -.00001824 00000-0 -10223-4 0 9997
2 59422 53.1596 169.4810 0000509 98.7589 261.3487 15.69688012120596
Epoch: May 6, 2026 • Age: 19 hours

Current Status

Altitude 363.7 km
Velocity 7.70 km/s
Sub-Earth Point 43.12°N, 18.68°E
Launch Date Apr 7, 2024
Age 2 years
Type internet

Technical Details

Classification Payload
Mass 960.00 kg
Dry Mass 910.00 kg
Total Mass 960.00 kg
Length 0.30 m
Diameter 4.10 m
Span 29.00 m
Shape Box + pan
Manufacturer SPXS
Bus Type Starlink V2MD
Phase Status In Orbit
Owner/State SPXS/US

Most Searched